Probability
3 8 11 9 7 5 3 1 1 0 0 0 0 0 0 0 0 0 0 0 0 0 0 0 0 0 0 0 0 0 0 0 0 0 0 0 1 1 0 0 0 0 0
3 7 10 9 7 6 4 1 0 0 0 0 0 0 0 0 0 0 0 0 0 0 0 0 0 0 0 0 0 0 0 0 0 0 0 0 1 2 1 0 0 0 0
2 6 8 8 8 8 5 2 1 0 0 0 0 0 0 0 0 0 0 0 0 0 0 0 0 0 0 0 0 0 0 0 0 0 0 0 1 1 1 0 0 0 1
2 5 7 9 10 9 7 4 1 0 1 1 0 0 0 0 0 0 0 0 0 0 0 0 0 0 0 0 0 0 0 0 0 0 0 0 0 0 1 1 1 1 1
2 5 8 11 12 10 9 6 3 2 2 2 1 0 0 0 0 0 0 0 0 0 0 0 0 0 0 0 0 0 0 0 0 0 0 0 0 1 1 1 2 2 1
3 5 9 13 14 12 10 8 7 6 5 4 2 0 0 0 0 0 0 0 0 0 0 0 0 0 0 0 0 0 0 0 0 0 0 0 1 2 2 1 1 2 1
5 6 10 16 17 14 11 10 10 11 10 7 3 1 1 1 1 1 2 1 0 0 0 0 0 0 0 0 0 0 0 0 0 0 0 0 1 2 2 1 1 1 1
8 9 12 17 19 17 14 12 12 14 14 10 5 2 2 2 3 4 4 3 1 1 1 1 1 1 1 1 1 1 0 0 0 0 0 0 1 2 2 1 0 0 0
11 11 12 15 18 19 19 15 13 14 14 12 8 4 2 2 4 5 5 5 3 2 2 2 2 2 2 2 2 2 1 0 0 0 0 0 0 1 2 1 1 0 0
10 11 12 13 16 18 19 16 14 13 14 12 9 5 2 2 3 4 4 5 4 3 3 3 3 3 3 3 3 2 1 0 0 0 0 0 0 0 1 2 2 1 0
7 8 10 11 13 14 13 12 11 11 11 10 7 3 2 2 3 3 3 4 4 3 3 3 3 3 3 3 2 1 0 0 0 0 0 0 0 0 1 2 2 1 0
4 5 7 9 9 9 9 8 8 7 7 6 4 2 1 2 2 2 2 2 2 1 2 3 3 3 3 1 1 0 0 0 0 0 0 0 0 0 0 2 2 1 0
2 3 5 7 7 7 7 7 6 5 4 4 2 1 0 1 1 1 1 1 0 0 1 1 2 3 3 1 0 0 0 0 0 0 0 0 0 0 0 1 2 1 1
1 1 2 5 7 5 5 6 7 6 5 4 1 0 0 0 0 0 0 0 0 0 0 0 1 2 2 2 1 1 0 0 0 0 0 0 0 0 0 1 2 2 2
0 0 1 3 5 4 3 4 7 7 6 5 2 0 0 0 0 0 0 0 0 0 0 0 0 1 1 2 2 2 1 0 0 0 0 0 0 0 0 0 2 3 3
0 0 1 2 3 3 3 3 6 7 7 5 3 1 0 0 0 0 0 0 0 0 0 0 0 0 0 1 2 2 1 0 0 0 0 0 0 0 0 0 1 3 3
0 0 0 1 2 2 3 3 4 6 5 4 2 1 0 0 0 0 0 0 0 0 0 0 0 0 0 0 1 1 1 0 0 0 0 0 0 0 1 1 1 2 3
0 0 0 0 1 1 3 3 4 4 3 2 1 1 0 0 0 0 0 0 0 0 0 0 0 0 0 0 1 2 1 0 0 0 0 0 0 0 0 1 1 1 2
0 0 0 0 0 1 2 3 4 4 2 1 0 0 0 0 0 0 0 0 0 0 0 0 0 0 0 0 1 1 1 0 0 0 0 0 0 0 0 0 0 0 1
0 0 0 0 0 1 1 1 3 4 2 1 0 0 0 0 0 0 0 0 0 0 0 0 0 0 0 0 0 0 0 0 0 0 0 0 0 0 0 0 0 0 0
0 0 0 0 0 0 0 0 1 2 2 1 0 0 0 0 0 0 0 0 0 0 0 0 0 0 0 0 0 0 0 0 0 0 0 0 0 0 0 0 0 0 0
0 0 0 0 0 0 0 0 0 0 0 0 0 0 0 0 0 0 0 0 0 0 0 0 0 0 0 0 0 0 0 0 0 0 0 0 0 0 0 0 0 0 0
0 0 0 0 0 0 0 0 0 0 0 0 0 0 0 0 0 0 0 0 0 0 0 0 0 0 0 0 0 0 0 0 0 0 0 0 0 0 0 0 0 0 0
0 0 0 0 0 0 0 0 0 0 0 0 0 0 0 0 0 0 0 0 0 0 0 0 0 0 0 0 0 0 0 0 0 0 0 0 0 0 0 0 0 0 0
0 0 0 0 0 0 0 0 0 0 0 0 0 0 0 0 0 0 0 0 0 0 0 0 0 0 0 0 0 0 0 0 0 0 0 0 0 0 0 0 0 0 0
0 0 0 0 0 0 0 0 0 0 0 0 0 0 0 0 0 0 0 0 0 0 0 0 0 0 0 0 0 0 0 0 0 0 0 0 0 0 0 0 0 0 0
Wind_Speed
2 3 6 8 9 9 10 10 10 11 11 11 11 12 12 12 11 11 12 12 11 12 12 12 12 13 13 14 14 14 14 14 14 14 14 14 14 14 14 13 11 8 14
3 4 7 8 9 10 10 10 10 10 11 11 11 11 11 11 11 11 11 11 11 12 12 12 12 13 13 13 14 14 14 14 14 13 12 11 12 13 13 12 11 8 13
4 4 6 8 9 10 10 10 10 10 10 11 11 11 11 11 11 11 11 11 11 11 12 12 12 12 13 13 13 13 13 13 13 12 10 5 7 12 12 12 12 12 13
4 4 5 8 9 10 10 10 10 10 10 10 10 10 10 10 10 10 10 10 10 11 11 11 11 12 12 12 12 12 12 12 11 10 5 4 4 10 12 12 12 12 12
4 3 5 8 8 9 10 10 10 10 10 10 10 10 10 10 10 10 10 10 10 10 10 10 10 11 11 11 11 11 11 11 10 8 4 4 4 9 11 11 11 11 11
3 3 5 8 8 9 10 10 10 10 10 10 10 9 10 9 9 9 9 9 9 9 9 10 10 10 10 10 10 10 11 10 8 4 4 3 3 8 10 10 10 11 11
3 2 4 7 8 8 9 9 9 10 10 10 9 9 9 9 9 9 8 8 8 9 9 9 9 9 10 10 10 10 10 9 5 4 3 2 3 8 9 10 10 10 11
3 2 3 7 8 8 8 8 9 9 9 9 9 8 8 9 9 8 8 8 8 8 8 8 8 9 9 9 9 9 9 7 5 3 2 2 4 8 9 9 9 9 10
3 3 2 3 6 7 7 7 7 8 8 8 8 7 7 8 8 8 7 7 7 7 7 7 8 8 8 8 8 8 7 7 3 2 2 1 5 7 8 8 9 9 9
3 3 2 2 3 4 4 6 7 7 7 7 7 7 7 7 7 7 6 6 6 6 7 7 7 7 7 7 7 7 7 5 2 2 1 1 4 6 7 7 7 8 7
3 3 2 2 2 3 3 4 5 6 6 6 5 6 5 3 3 3 4 5 6 6 6 6 6 6 6 6 6 6 5 2 2 1 0 1 3 5 6 6 6 6 6
2 2 2 2 2 2 3 3 2 2 3 3 3 3 2 2 2 3 4 4 5 5 5 5 5 5 5 3 3 4 2 2 1 0 0 1 2 3 4 4 5 5 5
1 1 1 1 2 2 2 2 2 2 2 2 3 2 2 2 2 2 1 2 2 3 2 3 3 2 2 2 2 2 2 1 1 1 1 1 2 2 2 3 4 4 4
1 1 1 1 1 1 1 2 2 2 2 2 2 2 2 2 1 1 1 1 1 1 1 1 1 2 2 2 2 2 1 1 0 0 1 2 2 3 3 3 4 4 4
1 1 1 1 1 1 2 1 2 2 2 2 2 2 2 2 2 1 1 1 1 1 1 1 1 2 2 2 1 2 1 1 1 0 1 2 3 3 4 4 4 4 4
1 1 1 1 1 1 2 1 2 1 2 2 2 2 2 2 2 2 2 1 1 1 1 1 2 2 1 1 1 1 1 1 1 1 1 2 3 4 5 4 4 4 4
2 0 0 0 1 1 1 1 2 2 2 2 2 2 2 2 2 2 2 1 1 1 1 1 1 1 1 1 1 1 1 1 1 1 1 1 2 3 4 4 4 5 5
1 1 0 1 1 1 1 1 1 2 2 1 1 1 1 1 2 2 2 1 1 1 1 1 2 1 1 1 1 1 1 1 2 2 2 1 1 1 2 3 4 5 5
2 1 1 1 1 1 1 1 1 2 2 1 1 1 1 1 2 2 1 1 1 1 1 1 1 1 1 0 1 1 1 1 2 2 2 2 1 1 1 2 4 4 4
1 1 1 1 1 1 1 1 1 2 1 1 1 1 1 1 1 1 1 1 1 1 1 0 1 1 1 1 1 1 1 1 1 1 2 1 1 1 1 1 1 2 4
1 1 1 2 1 1 1 1 1 1 1 1 1 1 1 1 1 1 1 1 1 1 1 0 0 1 0 0 1 1 2 1 1 1 1 1 1 1 1 1 1 1 1
3 2 2 2 1 2 1 1 1 1 1 1 1 1 1 1 0 1 1 1 1 1 1 1 1 1 0 1 1 1 1 2 2 1 1 1 2 1 1 2 2 1 1
2 2 2 2 2 2 1 1 1 2 2 1 1 1 2 1 0 0 0 1 1 1 1 1 2 2 1 0 1 2 2 2 2 2 1 1 1 1 2 2 2 2 2
2 2 1 2 2 2 2 2 2 2 1 1 0 0 1 1 0 0 0 1 1 1 1 1 1 1 2 1 1 0 1 1 1 2 2 1 2 2 2 2 2 2 3
1 1 1 2 2 2 2 3 2 2 1 1 1 1 1 0 1 1 1 1 1 1 2 1 1 1 2 2 2 1 1 0 1 1 2 2 2 2 2 3 2 2 3
2 1 1 2 1 1 2 2 2 3 2 1 1 1 1 1 1 1 1 1 1 1 2 2 2 2 2 2 2 2 2 2 2 2 2 2 3 2 2 2 3 3 2
Wind_Direction
197 180 167 145 138 131 126 120 113 110 107 106 106 105 105 103 100 98 94 93 92 93 94 92 92 91 89 88 87 85 85 87 85 84 86 88 88 86 84 81 78 74 81
165 165 154 144 138 133 129 123 116 113 111 108 106 106 107 106 104 102 97 95 94 95 95 95 92 92 91 89 89 88 85 84 84 81 80 84 88 89 87 85 84 84 83
138 149 150 141 138 134 130 125 119 117 115 112 110 108 107 108 107 103 99 97 96 95 96 96 95 95 94 92 90 89 88 86 83 78 72 64 83 90 90 87 85 87 85
141 144 145 140 137 135 132 129 127 123 119 115 113 111 110 110 108 104 101 99 97 96 97 98 98 97 95 94 93 92 90 87 82 75 60 54 74 92 91 89 87 89 87
130 138 147 139 137 137 134 132 132 128 123 117 115 114 113 111 109 107 104 102 99 97 97 100 100 99 98 96 94 93 92 88 81 67 57 54 65 92 92 89 88 90 88
116 126 146 140 138 137 134 133 132 129 126 122 118 116 116 113 109 106 105 105 103 101 99 101 101 100 100 99 98 96 93 90 78 60 55 53 66 94 95 94 94 93 90
108 115 142 138 133 133 134 134 131 127 126 123 119 117 117 114 111 108 106 107 107 107 106 104 105 104 102 100 101 101 95 89 81 68 55 54 87 100 100 98 97 93 89
107 103 134 138 133 132 130 132 131 129 125 123 120 117 117 115 112 111 109 108 109 110 110 107 108 107 106 104 104 102 96 86 82 76 62 53 102 106 103 100 100 97 93
81 86 96 135 140 136 131 129 125 125 121 117 117 116 113 113 114 113 112 112 111 111 111 108 111 108 107 109 109 104 97 82 78 73 69 56 105 109 105 103 101 99 95
58 69 81 99 121 132 136 130 123 117 116 114 111 111 110 112 116 111 109 113 114 113 111 108 111 110 106 106 106 103 94 78 72 70 63 85 103 115 111 107 107 105 101
45 36 60 87 103 120 128 128 125 121 114 109 108 107 105 106 113 111 101 105 110 111 111 110 112 112 104 101 100 94 87 73 74 60 62 110 114 116 115 114 113 111 108
27 12 33 76 91 118 131 124 119 108 107 97 99 103 104 104 101 103 104 103 103 103 109 107 105 104 93 86 90 86 79 74 70 22 284 146 144 128 130 130 125 120 116
333 8 16 56 88 105 123 123 114 107 103 100 104 102 103 97 94 91 101 99 94 90 93 92 87 89 101 102 96 93 96 83 58 326 305 243 189 173 162 158 151 139 131
329 340 2 43 85 88 98 126 126 122 120 120 118 110 112 114 113 119 112 101 98 102 105 98 104 108 113 117 119 118 113 108 109 301 283 267 245 220 209 194 169 165 155
327 326 349 26 89 106 89 117 121 137 143 137 125 116 117 134 142 136 127 115 114 114 129 125 121 126 125 122 121 125 139 162 200 243 295 281 269 257 237 219 194 182 179
268 308 4 23 56 103 118 118 139 148 148 134 133 130 124 131 142 146 142 135 135 138 147 149 148 141 143 141 147 163 189 202 215 230 260 293 285 266 248 233 217 210 206
224 202 77 165 66 95 110 112 138 131 126 139 142 137 134 127 143 149 147 146 165 152 145 131 122 117 129 137 179 215 214 213 221 234 243 258 287 289 262 241 238 236 231
208 166 149 101 83 120 118 99 126 119 113 124 136 146 143 130 130 141 148 157 155 142 144 150 137 120 135 172 221 241 234 227 232 234 237 241 248 277 277 258 251 245 243
208 182 144 110 133 165 136 100 90 106 101 95 99 121 130 136 134 141 146 136 132 134 144 169 139 138 152 202 246 252 249 241 242 241 239 237 225 228 241 276 270 264 262
210 166 139 92 90 121 121 94 75 83 85 80 92 108 115 121 110 132 132 117 117 105 66 77 131 113 142 184 269 297 283 267 246 234 233 221 216 225 228 250 258 266 263
153 142 141 104 96 100 115 136 155 134 108 90 76 55 85 84 109 120 105 129 138 149 161 138 71 87 47 58 63 350 326 284 242 236 224 204 220 228 225 243 243 240 263
176 171 158 146 146 147 162 166 170 142 122 105 50 39 35 64 92 130 112 128 122 140 126 132 91 99 69 109 113 81 333 320 287 247 222 208 227 233 237 253 245 239 243
179 186 174 164 147 146 123 101 73 78 75 51 28 20 4 4 93 78 117 173 152 145 186 193 164 147 176 267 121 138 157 238 296 296 247 231 230 231 245 255 246 245 242
207 195 168 151 132 139 136 133 125 135 153 185 188 243 337 346 339 44 216 207 190 188 200 220 182 171 157 195 274 271 183 173 185 296 302 272 254 243 245 258 250 250 249
186 175 172 143 129 136 143 154 160 170 182 166 138 174 238 318 328 344 325 274 228 215 210 208 210 198 186 188 192 185 203 283 183 196 273 301 306 265 260 259 252 253 254
40 69 112 148 145 147 153 168 184 188 180 165 176 200 230 246 275 300 297 273 257 240 227 218 213 217 216 200 203 195 181 191 205 203 235 271 281 279 273 255 247 250 247